Location: Ballingbuur
(53.0000°N, 5.7667°E)
Time: 06:53:46
(UTC+00:00)

Cosmos 2263 Rocket - Pass Details

Date: 29 November 2020
Orbit: 823 x 849 km, 71.0° (Epoch: 23 January)

Event Time Altitude Azimuth Distance (km) Brightness Sun altitude
Exits shadow 04:42:55 53° 254° (WSW) 1,036 2.2 -23.3°
Maximum altitude 04:44:02 65° 306° (NW) 930 2.1 -23.2°
Drops below altitude 10° 04:49:44 10° 28° (NNE) 2,486 4.9 -22.3°
Sets 04:52:13 0° 32° (NNE) 3,425 5.7 -22.0°
